Wind_Speed
27 28 29 30 32 31 28 27 29 30 31 32 31 31 31 31 33 35 34 35 34 33 31 27 26 27 25 23 24 26 26 26 25 24 22 20 20 19 18 17 17 17 17 17 16 14 13 12 13 14 15 15 15 15 15 15 14 13 12 11 11 10 10
27 27 27 27 30 31 30 29 28 28 30 31 32 31 30 30 32 33 33 33 31 31 29 26 26 26 24 24 25 26 26 25 25 24 22 20 19 19 18 18 18 17 17 17 16 15 13 13 13 14 15 15 15 16 15 15 15 14 13 12 12 11 11
27 28 28 28 28 30 31 30 28 28 29 31 32 30 28 30 30 26 26 28 29 29 28 26 26 25 25 24 23 26 27 25 24 23 21 19 18 19 19 20 19 18 17 17 17 16 14 13 13 13 15 15 15 16 16 15 15 14 13 13 12 12 12
29 30 31 31 31 31 31 30 29 28 29 30 31 29 27 29 27 22 21 25 26 27 28 27 25 25 26 24 22 23 25 25 24 22 21 20 20 20 21 21 20 18 17 17 17 16 15 13 13 13 15 15 16 16 16 16 15 15 14 13 13 13 13
30 31 32 33 34 34 34 33 32 29 29 30 30 29 27 27 27 24 22 23 24 25 27 26 25 26 28 26 24 24 24 24 24 23 23 23 22 22 22 22 20 19 18 18 18 17 16 14 14 14 15 16 16 16 16 16 15 15 15 14 13 13 13
31 33 34 34 35 36 36 36 36 33 30 30 30 28 26 26 27 27 24 23 23 23 25 26 26 27 28 28 27 26 24 25 26 25 24 24 23 23 23 22 21 20 19 19 19 18 16 15 15 15 16 16 16 16 16 16 16 15 15 15 14 15 15
33 34 35 36 35 36 36 35 36 35 33 32 30 27 26 27 28 27 25 23 23 23 25 27 27 27 28 28 29 28 26 26 26 26 25 24 24 24 23 23 23 21 20 20 19 18 17 16 15 15 16 16 16 16 17 17 17 16 16 16 16 16 16
34 35 37 38 37 35 35 35 35 36 35 34 32 28 27 28 28 27 25 23 24 25 26 28 28 27 27 28 29 28 27 25 25 26 26 26 25 24 23 24 24 22 21 21 20 19 18 17 16 16 17 16 16 16 17 17 17 17 17 17 18 18 17
34 36 37 39 38 35 35 36 36 35 34 34 33 30 29 29 27 27 26 24 25 27 27 28 29 28 28 28 28 28 28 26 27 28 28 27 27 26 25 25 25 23 22 22 21 21 20 18 18 17 17 17 17 17 17 18 18 18 17 18 19 19 18
35 35 37 39 39 35 34 37 38 36 34 33 33 31 29 29 28 27 27 26 26 27 28 29 29 29 29 29 29 30 30 30 30 30 29 27 28 27 25 25 25 24 23 23 23 22 21 20 19 18 18 17 17 17 17 17 18 19 18 19 19 20 19
33 32 34 37 38 34 33 36 38 36 34 32 32 31 29 29 28 28 28 26 25 26 27 29 30 30 30 30 31 32 33 33 33 31 29 28 29 29 27 26 25 25 24 23 23 22 21 21 20 19 18 18 18 18 17 17 19 20 20 19 19 20 20
29 29 30 33 34 33 33 36 37 35 33 32 32 32 31 29 29 29 29 27 25 26 26 27 29 29 30 30 31 32 33 33 32 32 31 31 31 30 29 27 26 25 24 22 22 22 22 21 21 20 20 19 19 19 18 18 19 21 21 20 19 20 20
27 27 28 29 30 30 32 35 36 34 33 32 32 33 32 31 30 30 30 28 27 26 26 26 27 28 30 31 32 32 32 33 33 32 32 32 31 31 29 28 27 26 25 23 22 23 23 21 22 23 22 21 21 20 19 19 20 21 22 21 20 20 20
27 27 28 28 27 28 30 32 33 32 32 32 32 33 32 31 30 30 30 30 28 27 26 25 26 28 29 30 32 32 32 32 33 32 31 31 30 29 29 29 27 27 27 25 24 24 24 24 24 25 24 23 22 21 20 20 21 22 23 22 21 20 20
28 28 28 28 28 27 27 28 29 29 30 32 33 35 34 32 31 30 30 30 29 28 26 26 26 27 28 28 29 31 32 32 32 32 32 30 29 29 30 30 28 28 27 26 25 24 24 25 25 25 25 24 24 23 22 22 23 24 24 23 22 21 20
27 27 27 27 28 28 27 26 27 27 28 30 33 35 36 34 32 31 31 30 30 28 27 28 27 27 28 28 28 29 31 32 32 33 32 30 30 31 32 31 30 29 27 25 25 26 25 26 26 26 26 26 26 25 24 23 24 24 24 24 23 22 21
26 27 27 27 27 28 27 26 26 26 27 28 30 33 34 34 32 31 31 31 30 29 28 28 28 27 28 29 28 29 30 32 33 33 32 32 31 32 32 30 30 30 27 26 27 27 27 28 28 28 28 28 28 26 25 24 25 25 24 24 24 23 22
26 26 26 26 27 27 26 25 23 24 27 29 29 31 32 33 31 31 30 30 30 30 30 29 28 27 27 28 29 30 31 33 34 34 34 33 31 31 30 30 30 30 29 29 30 30 30 30 30 30 30 30 30 28 26 25 25 25 25 25 25 24 24
25 25 26 26 26 26 26 25 22 21 24 27 28 30 31 32 31 30 30 30 30 31 32 31 30 29 29 29 30 31 32 35 36 37 36 32 31 33 34 33 33 32 31 32 32 32 32 32 32 32 32 32 31 30 28 27 26 26 26 26 26 25 24
23 24 25 26 27 26 26 25 23 20 19 20 23 26 27 28 28 28 28 28 29 30 32 33 33 32 31 31 30 30 31 34 37 39 37 32 31 35 36 34 34 32 32 33 32 32 33 33 33 33 33 33 32 31 30 29 28 28 27 27 27 27 25
22 23 24 26 27 27 26 26 25 23 19 17 18 20 21 22 24 25 27 27 28 28 29 32 34 33 32 32 31 29 30 34 37 39 37 34 34 36 36 34 34 32 32 33 33 33 33 33 33 34 33 33 32 32 32 31 29 29 27 26 28 28 26
23 23 23 24 26 26 26 25 25 25 23 19 18 18 18 19 20 23 25 27 28 28 27 29 32 34 33 32 30 28 30 35 38 38 37 38 38 37 37 37 35 33 33 34 34 33 32 31 31 32 31 32 33 32 32 31 30 29 28 27 28 29 27
23 23 23 24 24 25 25 25 25 25 24 23 21 20 19 19 19 21 23 26 28 29 28 27 30 33 34 33 32 29 29 33 36 36 38 41 40 38 38 38 36 34 34 35 34 34 33 32 31 29 27 28 30 30 30 32 31 30 29 27 27 28 27
25 24 24 24 24 24 25 25 24 24 24 24 24 24 23 22 21 21 22 24 27 28 29 28 30 33 33 33 33 30 29 32 36 39 41 40 38 38 38 38 36 35 34 35 35 35 35 35 34 33 31 30 30 29 29 30 29 29 29 27 27 28 26
28 26 26 26 26 25 25 25 25 24 24 24 24 24 25 25 25 24 24 25 27 29 30 31 31 31 31 32 33 31 30 33 37 39 40 38 36 37 38 38 37 36 35 35 36 36 36 36 36 36 36 36 35 34 32 31 28 28 28 27 28 28 26
29 29 28 27 27 27 26 25 25 25 25 25 25 25 25 25 27 27 27 27 29 30 31 32 32 32 31 31 32 31 31 35 36 36 38 38 36 37 38 38 37 36 36 36 36 36 36 36 37 37 37 37 36 36 35 34 32 31 31 30 29 28 27
28 29 29 28 28 28 28 28 27 26 25 26 26 26 26 26 27 28 29 30 30 30 31 32 33 33 32 31 31 30 32 36 36 34 36 38 38 38 38 38 38 37 37 37 37 36 37 37 37 37 37 37 36 36 35 35 35 34 34 34 32 30 30
28 28 29 29 29 29 30 29 29 28 27 26 26 27 28 28 28 28 29 31 31 31 31 32 33 33 33 32 32 31 33 36 38 36 36 37 38 38 38 37 35 35 36 38 38 37 38 38 37 37 37 36 36 36 36 35 35 35 35 35 34 32 33
29 29 29 30 31 31 31 31 30 30 29 28 27 27 28 29 29 29 30 31 32 31 31 33 34 34 34 34 35 34 34 37 39 39 37 37 38 38 37 35 34 36 39 40 39 39 39 38 37 37 37 37 36 36 36 35 35 35 35 35 34 34 35
32 31 30 31 31 32 32 32 32 32 31 30 30 29 28 29 30 30 31 31 32 31 31 33 34 34 35 36 36 35 35 36 38 38 38 38 38 38 37 37 38 41 43 42 40 40 39 38 37 37 37 36 36 36 36 36 35 35 35 35 34 34 35
35 34 32 31 31 32 33 33 33 33 33 32 31 31 30 30 30 30 31 32 32 32 30 32 34 34 35 36 36 36 36 37 37 38 38 39 39 39 38 39 41 42 43 42 42 41 40 39 38 38 37 36 35 35 36 36 36 36 36 36 35 36 36
37 36 35 33 32 32 33 33 34 34 34 34 33 32 32 31 31 31 31 32 33 33 31 31 32 33 34 35 35 35 36 38 39 39 39 39 40 41 38 37 40 42 43 43 43 42 41 40 39 38 36 35 35 35 35 36 36 36 37 37 37 37 37
42 40 39 38 37 35 34 34 34 35 35 35 34 34 33 33 32 32 32 32 33 33 32 31 32 32 34 35 36 36 38 41 42 41 39 39 41 41 37 36 39 42 43 44 44 43 42 42 41 40 38 36 35 35 35 36 36 36 37 37 38 38 38
47 46 45 44 43 41 39 37 36 35 36 36 35 35 34 34 34 33 33 33 33 33 33 33 33 33 33 35 38 40 41 44 44 42 40 40 40 39 37 38 41 42 42 43 46 46 45 44 42 41 39 38 37 36 36 36 36 36 37 38 38 38 38
51 51 51 50 49 47 45 42 39 38 37 37 36 35 35 35 35 34 35 35 33 33 34 34 34 34 33 36 42 44 43 45 44 42 41 41 40 40 41 41 42 42 42 43 45 46 46 44 43 42 41 40 38 37 37 37 37 37 38 38 39 39 39
53 53 54 54 53 52 50 47 44 42 41 40 38 37 36 35 35 35 35 36 35 34 35 35 34 35 36 41 47 47 46 47 47 45 44 44 44 43 43 42 42 43 43 43 44 44 43 42 41 41 41 40 38 37 38 39 40 39 39 40 41 41 41
52 52 53 54 54 54 53 51 49 46 44 42 41 40 38 37 36 34 34 36 36 35 36 36 36 39 41 44 47 47 46 47 47 46 45 44 44 43 41 40 40 41 41 41 40 40 39 39 39 39 39 38 38 38 39 39 40 40 40 41 42 42 43
Wind_Direction
277 277 282 284 281 281 280 276 275 277 277 276 277 280 284 285 282 278 272 263 254 241 232 233 230 225 227 229 234 235 230 231 234 234 233 233 234 240 245 246 246 249 251 255 256 257 261 263 264 267 268 270 272 273 273 271 273 277 277 275 275 277 278
278 278 281 283 281 278 279 279 277 277 277 277 278 281 285 286 284 280 271 261 251 238 230 230 228 226 228 231 236 234 228 230 236 239 240 235 235 243 248 249 248 248 250 253 255 256 258 261 264 266 269 270 271 272 273 273 275 277 274 271 271 273 274
280 278 279 282 283 281 280 280 278 276 277 277 279 282 284 285 286 280 266 257 250 238 229 225 224 226 229 234 236 229 226 233 237 239 241 237 237 242 245 249 250 248 250 252 254 255 257 259 262 265 267 268 268 270 272 272 275 276 273 270 270 271 273
283 280 277 276 277 278 279 280 279 277 275 275 278 281 280 281 285 281 262 254 248 237 226 220 220 226 230 231 230 224 227 236 235 234 237 239 240 240 243 249 251 249 250 252 253 254 256 258 261 263 263 264 265 267 269 271 274 274 273 271 271 271 272
282 280 277 274 272 273 275 277 279 279 276 273 275 277 277 277 280 279 268 256 248 237 226 218 218 225 229 229 227 225 229 235 236 236 238 239 239 239 242 247 250 250 250 250 250 252 255 257 260 261 261 262 263 264 266 269 272 273 274 274 272 271 272
279 279 277 275 273 272 273 275 277 278 276 273 271 272 272 271 272 275 272 263 253 239 229 223 220 224 229 230 229 228 229 235 240 240 239 239 239 239 242 248 249 248 249 249 249 251 253 256 260 261 261 261 261 263 265 268 270 272 275 275 273 272 273
277 277 277 276 275 274 274 274 275 274 273 271 269 266 266 265 267 271 271 264 253 240 233 232 228 227 230 232 232 231 230 235 240 242 242 242 241 239 242 248 247 245 248 250 250 251 253 255 258 259 259 260 260 261 263 266 268 270 273 275 274 274 274
275 274 275 275 276 275 274 273 273 272 271 269 265 261 259 261 264 268 268 262 252 242 236 235 234 233 233 233 234 234 232 233 237 241 243 243 242 237 237 244 246 245 247 249 250 252 253 255 256 256 257 258 258 258 261 264 266 268 271 274 275 275 275
275 274 274 275 276 275 272 270 270 271 271 269 265 258 255 257 261 264 265 262 254 246 241 237 235 236 236 235 236 236 235 235 237 238 241 243 242 238 237 243 246 245 245 248 250 251 254 255 255 255 256 256 256 256 258 261 265 267 270 273 276 277 275
277 276 274 275 276 274 269 268 268 270 271 270 264 255 251 255 259 259 262 263 256 249 246 242 237 236 237 236 237 238 240 242 242 242 243 243 240 237 236 241 244 244 244 247 248 248 251 254 253 254 255 255 256 256 257 261 265 268 269 272 275 277 276
277 278 276 276 277 275 268 265 267 268 269 268 260 250 248 252 255 254 257 261 259 255 251 247 242 239 238 239 239 241 243 244 244 244 244 241 239 237 235 237 240 243 244 245 246 247 250 252 252 254 256 256 256 257 259 262 266 268 270 271 274 276 276
282 284 282 280 280 277 268 264 266 266 266 265 257 249 247 249 250 250 251 255 258 259 257 252 246 243 242 242 243 244 245 245 244 242 241 240 239 239 238 236 237 240 243 242 245 249 250 247 250 256 258 257 257 259 260 262 265 268 269 270 273 275 275
286 289 288 285 283 279 271 266 266 265 263 262 256 250 247 247 246 247 248 250 253 257 258 255 250 248 247 245 244 245 245 245 243 240 240 240 239 239 240 239 237 239 240 238 240 247 248 247 251 258 259 259 259 260 260 262 265 266 267 270 272 272 273
287 289 290 288 285 281 275 270 268 265 262 260 255 248 246 246 247 247 247 248 249 251 255 256 253 253 253 249 245 244 244 245 244 240 239 239 239 240 242 241 240 239 238 236 236 240 244 248 253 257 260 261 262 262 262 262 264 265 266 269 270 270 272
286 288 290 289 287 284 280 272 267 266 263 260 254 248 246 247 250 250 249 249 248 249 252 253 252 253 254 252 249 246 243 244 242 236 232 232 234 239 243 242 240 240 240 238 236 238 244 249 254 258 261 263 264 263 263 262 263 264 266 268 268 268 269
288 289 289 290 288 286 284 275 265 262 262 261 256 251 248 248 250 249 249 249 249 249 250 251 251 251 251 252 252 249 243 241 240 235 230 231 235 239 242 242 241 242 243 240 237 242 249 252 255 259 262 264 264 263 262 261 262 263 264 265 267 268 268
288 289 289 290 288 286 286 281 268 259 258 258 257 253 248 248 249 248 248 248 248 248 248 249 251 252 251 250 252 251 244 240 239 235 230 231 235 239 240 240 241 243 243 240 240 248 253 254 257 260 262 263 263 262 261 260 260 262 262 262 264 266 267
287 288 288 289 289 288 287 285 275 262 257 257 256 252 248 246 247 247 247 247 248 248 248 249 250 252 253 250 250 252 248 243 240 236 231 228 230 233 235 236 239 243 244 244 247 252 254 255 258 260 261 262 262 261 260 258 260 261 261 261 261 263 265
288 287 287 287 289 290 290 289 284 272 262 257 252 247 244 243 244 244 244 245 247 248 249 249 250 251 253 252 251 252 252 247 241 237 234 228 227 232 235 237 240 242 244 246 249 253 255 257 259 260 260 260 260 260 259 258 259 259 260 261 261 261 263
291 290 289 287 287 289 291 292 293 287 274 260 249 242 241 241 241 241 242 245 247 249 249 250 250 250 252 254 254 254 253 247 240 237 234 228 228 234 236 237 240 241 244 248 252 255 257 258 259 260 260 260 260 260 259 258 258 258 259 260 260 260 260
293 293 292 290 288 289 291 293 295 294 289 274 257 249 245 243 243 243 242 244 246 249 250 250 250 249 250 252 255 255 251 244 237 235 233 229 229 233 233 234 238 241 246 251 254 256 257 259 261 261 260 260 261 260 260 260 259 259 259 259 260 261 260
291 292 292 291 289 289 289 290 292 293 293 288 276 265 255 248 245 244 243 244 245 247 253 254 250 248 248 250 252 250 247 244 239 233 230 230 232 234 233 234 237 241 245 249 251 253 254 254 256 258 260 261 261 261 262 262 261 261 261 258 259 261 261
288 289 290 290 289 288 287 287 288 288 289 289 285 279 271 262 254 246 244 246 245 246 253 256 252 248 246 247 249 248 247 245 240 232 229 231 234 235 234 235 237 239 242 246 249 251 251 249 248 250 253 258 262 262 261 261 262 263 262 260 259 259 259
286 285 285 286 286 286 286 285 285 284 283 283 282 281 278 274 268 258 252 251 249 249 252 255 253 250 247 246 247 249 248 244 240 236 233 233 235 236 235 234 236 239 243 246 249 250 250 249 248 247 247 249 252 254 255 259 263 263 261 260 257 256 256
285 284 282 281 281 282 283 283 282 282 281 279 277 276 276 275 273 268 264 260 257 254 253 254 254 252 250 248 247 247 246 245 244 241 236 234 235 237 235 234 236 240 243 246 247 248 249 249 249 249 248 247 246 247 250 254 257 258 259 258 253 252 252
283 284 282 280 279 278 279 279 279 279 279 278 277 274 272 272 271 270 269 266 264 261 259 260 258 254 252 250 248 246 244 245 246 243 237 233 234 237 238 236 236 240 243 245 246 247 248 249 250 250 249 248 247 247 249 250 250 251 253 254 252 252 252
278 281 282 282 280 279 277 277 276 276 275 275 275 275 272 270 268 269 269 268 268 267 266 265 261 256 254 252 250 247 245 245 245 243 240 238 237 240 241 238 237 240 243 244 245 246 247 249 251 251 250 249 249 249 250 251 251 251 252 253 253 253 252
274 275 278 281 282 281 278 276 275 274 274 272 272 272 273 272 269 268 268 269 269 268 268 267 264 259 256 254 251 247 243 244 245 243 243 243 243 244 243 239 238 242 244 244 244 245 247 249 250 250 250 249 249 250 251 252 252 253 254 254 254 253 252
275 273 275 278 280 281 279 277 275 274 273 273 272 270 270 271 272 270 269 269 270 269 268 267 266 263 258 255 252 248 242 241 244 245 245 245 245 246 245 239 234 236 241 243 243 244 246 248 249 249 248 248 249 250 251 252 253 253 254 255 255 253 253
277 276 276 277 279 279 279 278 276 275 273 272 272 271 269 269 271 272 271 270 271 271 268 267 267 265 261 256 253 251 245 241 242 245 246 246 246 247 247 240 233 233 238 241 242 243 245 246 247 247 247 248 248 249 250 251 252 253 254 255 255 255 255
279 278 277 277 277 277 278 278 277 276 275 273 272 271 270 269 269 270 271 271 271 271 269 268 267 265 263 258 253 250 246 241 241 245 246 246 246 246 247 245 241 239 240 241 242 242 244 245 245 245 246 247 248 249 249 250 251 253 254 255 256 256 256
279 279 279 279 277 276 276 277 276 276 276 274 273 272 270 269 268 269 270 270 270 271 270 267 265 263 261 257 254 252 245 238 240 245 246 244 244 245 246 247 245 243 242 241 242 242 242 243 243 243 244 246 248 249 250 250 251 252 254 255 256 257 258
281 280 280 281 281 279 276 275 275 275 276 275 275 274 272 270 268 268 269 269 270 271 269 267 263 260 256 253 253 253 246 239 241 246 246 245 245 245 245 246 246 245 244 242 242 242 242 241 241 241 243 246 249 250 250 251 252 253 254 256 257 258 259
281 281 280 281 282 282 280 277 274 273 274 274 274 273 273 272 270 269 269 268 269 269 269 266 261 255 249 247 248 251 247 243 245 249 247 245 245 244 244 245 246 248 248 246 244 243 242 242 242 242 243 246 249 250 252 254 255 255 255 256 257 258 258
279 280 280 280 280 281 281 280 277 273 272 272 272 272 271 270 270 270 270 270 269 269 269 266 258 250 243 239 242 245 244 242 245 249 247 244 244 245 244 244 245 247 250 251 249 246 244 243 243 243 244 246 249 251 253 255 257 258 258 257 256 257 257
277 278 278 278 279 279 280 280 279 275 272 271 270 270 269 268 268 268 270 271 270 269 270 267 256 247 242 239 238 238 237 237 241 245 245 244 244 245 244 243 245 248 250 252 252 249 246 244 245 246 247 248 250 253 255 257 258 259 259 259 258 257 257
277 276 276 276 276 277 277 278 279 277 274 271 270 270 269 268 267 267 268 270 271 270 271 267 254 245 245 246 242 237 234 235 238 242 244 244 243 243 242 242 245 247 249 250 250 249 247 246 247 248 250 251 253 257 259 260 260 260 260 260 260 260 259
Height
5803 5803 5802 5800 5799 5799 5799 5797 5796 5796 5795 5794 5793 5792 5793 5793 5791 5789 5787 5786 5786 5788 5789 5791 5792 5793 5795 5798 5799 5800 5802 5803 5805 5806 5806 5808 5809 5809 5810 5811 5811 5811 5812 5813 5813 5814 5814 5814 5815 5816 5816 5816 5816 5816 5816 5816 5816 5817 5817 5817 5817 5817 5817
5800 5799 5798 5797 5796 5795 5795 5794 5793 5793 5792 5791 5790 5789 5789 5788 5788 5785 5783 5782 5783 5785 5787 5788 5789 5791 5793 5795 5796 5797 5799 5801 5802 5803 5804 5805 5807 5808 5809 5809 5809 5809 5810 5811 5811 5812 5812 5813 5813 5814 5814 5815 5814 5814 5814 5815 5815 5815 5816 5816 5816 5815 5815
5796 5796 5795 5794 5793 5792 5792 5791 5790 5790 5789 5788 5787 5786 5785 5784 5784 5782 5781 5780 5781 5784 5785 5785 5787 5789 5791 5792 5793 5795 5797 5799 5800 5801 5802 5804 5805 5806 5807 5807 5807 5807 5808 5809 5809 5809 5810 5811 5811 5812 5813 5813 5813 5813 5813 5813 5813 5813 5814 5814 5814 5814 5814
5792 5792 5792 5791 5790 5790 5789 5788 5787 5787 5786 5785 5784 5784 5783 5782 5781 5780 5780 5779 5779 5781 5782 5782 5784 5787 5788 5789 5791 5793 5795 5797 5798 5799 5800 5802 5803 5804 5804 5804 5805 5805 5806 5807 5807 5807 5808 5809 5809 5810 5811 5811 5811 5812 5811 5811 5811 5812 5812 5813 5813 5813 5813
5789 5789 5789 5788 5787 5786 5786 5785 5784 5783 5782 5781 5781 5781 5781 5780 5780 5779 5778 5778 5777 5778 5779 5780 5782 5784 5785 5787 5788 5790 5792 5794 5796 5798 5799 5800 5801 5801 5801 5802 5803 5803 5804 5804 5805 5805 5806 5806 5807 5808 5808 5809 5809 5810 5809 5809 5809 5809 5810 5811 5811 5811 5811
5786 5786 5785 5784 5783 5782 5782 5781 5780 5779 5778 5777 5777 5778 5778 5778 5778 5777 5776 5776 5776 5777 5778 5779 5781 5782 5783 5785 5786 5787 5789 5791 5793 5795 5797 5798 5799 5799 5799 5800 5800 5800 5801 5802 5803 5803 5803 5804 5805 5805 5806 5807 5807 5807 5807 5807 5807 5807 5808 5809 5809 5809 5809
5783 5782 5781 5780 5779 5778 5778 5777 5776 5775 5775 5774 5774 5774 5775 5775 5775 5775 5775 5775 5775 5776 5777 5777 5779 5780 5782 5783 5784 5785 5787 5789 5791 5792 5794 5795 5796 5797 5798 5798 5798 5798 5799 5800 5800 5801 5801 5802 5802 5803 5804 5804 5805 5805 5805 5805 5805 5806 5806 5807 5807 5807 5807
5780 5779 5777 5776 5776 5775 5774 5773 5772 5770 5771 5771 5771 5772 5772 5772 5773 5773 5773 5773 5774 5774 5775 5776 5776 5778 5780 5781 5782 5783 5784 5786 5788 5789 5790 5792 5793 5795 5795 5795 5795 5796 5797 5797 5798 5798 5799 5799 5800 5801 5801 5802 5803 5803 5803 5803 5803 5804 5804 5804 5804 5805 5805
5776 5775 5774 5772 5772 5771 5771 5769 5768 5767 5767 5767 5768 5768 5769 5769 5770 5771 5771 5772 5772 5772 5773 5774 5775 5776 5778 5779 5779 5781 5782 5784 5785 5786 5788 5790 5791 5792 5793 5793 5793 5794 5795 5795 5795 5796 5796 5797 5798 5798 5799 5800 5801 5801 5801 5801 5801 5801 5802 5802 5802 5802 5803
5772 5771 5770 5768 5767 5767 5767 5766 5764 5764 5763 5764 5764 5765 5765 5765 5766 5767 5768 5769 5770 5770 5770 5771 5772 5773 5775 5776 5778 5779 5780 5781 5783 5784 5785 5787 5788 5789 5790 5790 5790 5791 5792 5793 5793 5793 5794 5794 5795 5796 5797 5798 5798 5799 5799 5799 5799 5799 5799 5800 5800 5800 5800
5768 5767 5766 5765 5763 5762 5762 5762 5761 5760 5760 5760 5760 5761 5762 5762 5762 5764 5765 5765 5766 5767 5767 5768 5769 5771 5772 5773 5775 5776 5777 5779 5780 5781 5783 5784 5785 5786 5787 5788 5787 5788 5789 5790 5790 5791 5792 5792 5793 5793 5794 5795 5795 5796 5797 5797 5797 5797 5797 5798 5798 5797 5797
5765 5764 5763 5761 5760 5759 5758 5758 5758 5757 5756 5756 5757 5758 5758 5758 5758 5759 5760 5761 5763 5763 5764 5765 5766 5768 5769 5770 5771 5772 5774 5775 5777 5778 5779 5780 5782 5783 5784 5785 5785 5785 5786 5787 5788 5788 5789 5790 5790 5790 5791 5792 5793 5794 5795 5795 5795 5794 5794 5795 5795 5795 5795
5761 5760 5759 5758 5757 5755 5755 5755 5754 5753 5752 5753 5753 5754 5754 5755 5755 5755 5756 5757 5759 5760 5761 5762 5763 5764 5766 5767 5768 5769 5770 5772 5774 5775 5776 5777 5779 5780 5780 5781 5782 5782 5783 5785 5785 5785 5786 5787 5788 5788 5788 5789 5790 5791 5792 5793 5793 5792 5792 5792 5793 5793 5792
5758 5757 5756 5755 5754 5752 5751 5751 5750 5749 5749 5750 5750 5751 5751 5751 5752 5752 5753 5754 5755 5756 5757 5758 5760 5761 5762 5763 5764 5766 5767 5769 5770 5772 5773 5774 5775 5775 5776 5777 5779 5780 5781 5782 5782 5783 5784 5784 5785 5785 5785 5786 5787 5788 5790 5790 5791 5790 5789 5790 5790 5790 5790
5756 5754 5753 5752 5750 5749 5748 5747 5746 5746 5745 5746 5747 5747 5747 5748 5748 5749 5749 5751 5752 5752 5753 5754 5756 5757 5758 5760 5761 5762 5763 5765 5766 5768 5769 5770 5771 5772 5773 5774 5776 5776 5777 5779 5780 5780 5781 5782 5782 5782 5782 5783 5784 5785 5786 5787 5787 5787 5787 5787 5787 5787 5787
5752 5751 5750 5748 5747 5746 5744 5743 5742 5742 5742 5742 5742 5743 5744 5745 5745 5745 5746 5747 5748 5750 5750 5751 5752 5753 5755 5756 5757 5758 5760 5760 5761 5763 5765 5766 5768 5769 5770 5771 5772 5773 5774 5776 5776 5776 5777 5778 5778 5779 5780 5780 5780 5781 5782 5783 5784 5784 5784 5784 5784 5784 5784
5750 5748 5747 5745 5744 5743 5741 5740 5739 5739 5739 5738 5738 5739 5740 5741 5741 5742 5743 5744 5745 5746 5747 5748 5749 5750 5751 5752 5753 5754 5756 5756 5757 5760 5762 5763 5764 5765 5766 5767 5768 5769 5771 5772 5773 5773 5774 5774 5775 5775 5776 5776 5776 5778 5779 5780 5780 5781 5781 5781 5781 5781 5781
5747 5745 5744 5742 5741 5739 5738 5737 5736 5735 5735 5735 5735 5735 5736 5737 5738 5739 5740 5741 5742 5743 5744 5745 5746 5747 5747 5748 5749 5751 5752 5753 5754 5756 5758 5760 5761 5762 5763 5764 5765 5766 5768 5768 5769 5770 5770 5771 5771 5772 5772 5772 5773 5774 5775 5776 5777 5777 5778 5778 5778 5778 5778
5744 5742 5741 5739 5738 5736 5735 5734 5733 5732 5731 5731 5731 5731 5732 5733 5734 5735 5736 5738 5739 5740 5740 5741 5742 5743 5744 5744 5746 5747 5748 5749 5750 5752 5755 5756 5757 5759 5760 5761 5762 5764 5765 5765 5765 5766 5767 5768 5768 5768 5769 5769 5769 5770 5771 5772 5773 5774 5774 5774 5775 5775 5775
5742 5740 5738 5737 5735 5734 5732 5731 5730 5729 5728 5728 5728 5728 5728 5729 5730 5731 5733 5734 5735 5736 5736 5736 5738 5739 5740 5741 5741 5743 5744 5745 5746 5748 5750 5752 5753 5755 5757 5758 5759 5761 5761 5761 5762 5763 5764 5765 5765 5765 5765 5766 5766 5767 5767 5768 5770 5770 5771 5772 5772 5772 5772
5740 5738 5736 5734 5733 5731 5730 5729 5727 5727 5726 5726 5725 5725 5726 5726 5727 5728 5729 5730 5731 5731 5731 5732 5733 5734 5736 5736 5737 5738 5740 5741 5741 5743 5746 5748 5749 5751 5752 5754 5755 5757 5758 5758 5759 5760 5761 5762 5762 5762 5762 5763 5763 5764 5764 5765 5766 5767 5768 5770 5769 5768 5769
5738 5736 5735 5733 5731 5729 5728 5727 5726 5724 5724 5723 5723 5723 5723 5723 5724 5724 5725 5726 5727 5727 5727 5727 5729 5730 5731 5732 5733 5734 5736 5737 5737 5740 5742 5742 5743 5745 5747 5749 5751 5753 5754 5754 5755 5756 5757 5758 5758 5758 5759 5760 5760 5761 5762 5762 5763 5765 5766 5767 5767 5766 5766
5735 5734 5733 5731 5729 5728 5726 5725 5724 5723 5722 5721 5721 5720 5720 5720 5720 5721 5721 5722 5723 5723 5723 5724 5725 5726 5726 5727 5728 5730 5731 5732 5733 5736 5737 5737 5738 5740 5743 5745 5747 5748 5749 5749 5751 5752 5753 5754 5754 5755 5756 5757 5757 5758 5759 5758 5760 5762 5763 5764 5764 5763 5763
5731 5730 5730 5729 5728 5726 5724 5723 5722 5721 5720 5719 5718 5718 5717 5717 5717 5717 5717 5718 5718 5719 5719 5720 5721 5721 5722 5723 5724 5726 5728 5729 5730 5731 5732 5733 5734 5736 5738 5740 5741 5743 5744 5745 5746 5747 5748 5750 5751 5752 5753 5754 5754 5754 5755 5755 5757 5759 5760 5761 5761 5759 5759
5727 5726 5726 5725 5725 5724 5722 5721 5720 5719 5718 5717 5716 5716 5715 5715 5714 5714 5714 5714 5714 5715 5715 5715 5715 5716 5717 5718 5720 5723 5724 5725 5726 5727 5727 5729 5730 5731 5733 5735 5737 5738 5739 5741 5742 5743 5744 5745 5746 5747 5749 5750 5750 5751 5752 5752 5754 5755 5755 5756 5756 5755 5756
5722 5722 5722 5721 5721 5720 5719 5718 5717 5716 5715 5714 5714 5713 5713 5712 5712 5711 5711 5711 5711 5711 5712 5712 5712 5712 5713 5714 5716 5719 5721 5721 5722 5722 5723 5724 5725 5726 5728 5730 5732 5733 5734 5736 5737 5738 5739 5740 5741 5743 5743 5745 5746 5747 5748 5749 5750 5751 5751 5752 5752 5751 5752
5718 5718 5717 5717 5716 5716 5715 5715 5714 5713 5713 5712 5711 5710 5710 5709 5709 5708 5708 5708 5708 5708 5708 5708 5708 5708 5709 5711 5712 5715 5717 5717 5717 5718 5718 5719 5721 5722 5723 5725 5727 5728 5729 5731 5732 5733 5734 5735 5736 5737 5738 5739 5740 5741 5743 5744 5745 5746 5746 5747 5748 5748 5747
5714 5713 5713 5712 5712 5711 5711 5710 5710 5710 5709 5708 5708 5707 5706 5706 5705 5705 5705 5704 5704 5704 5705 5705 5704 5705 5706 5707 5707 5709 5711 5711 5712 5713 5713 5714 5715 5717 5719 5721 5724 5724 5724 5725 5727 5728 5729 5730 5731 5732 5733 5734 5735 5736 5737 5738 5739 5740 5741 5742 5743 5743 5743
5709 5709 5709 5708 5707 5706 5706 5705 5705 5705 5705 5704 5704 5703 5703 5702 5702 5701 5701 5701 5700 5700 5701 5701 5700 5701 5701 5702 5702 5703 5705 5707 5707 5708 5709 5709 5710 5712 5714 5718 5720 5720 5719 5720 5722 5723 5724 5725 5727 5728 5729 5730 5730 5731 5732 5733 5734 5735 5736 5737 5737 5738 5737
5704 5704 5704 5703 5702 5702 5701 5700 5700 5700 5700 5700 5700 5699 5699 5698 5698 5697 5697 5697 5696 5696 5696 5696 5696 5696 5697 5697 5697 5698 5700 5701 5702 5702 5703 5704 5705 5707 5709 5712 5714 5714 5714 5715 5717 5718 5719 5721 5722 5723 5724 5725 5725 5726 5727 5728 5729 5729 5730 5731 5732 5732 5732
5699 5699 5699 5699 5698 5697 5696 5695 5695 5695 5695 5695 5695 5695 5695 5694 5694 5693 5693 5692 5692 5692 5692 5692 5692 5692 5692 5692 5693 5694 5695 5696 5696 5697 5698 5700 5701 5702 5704 5705 5706 5707 5709 5710 5711 5712 5714 5716 5717 5718 5719 5720 5721 5721 5722 5723 5723 5724 5725 5726 5726 5727 5728
5693 5693 5693 5693 5693 5693 5692 5691 5690 5689 5689 5689 5690 5690 5690 5690 5690 5689 5688 5688 5687 5687 5688 5687 5687 5687 5688 5687 5688 5689 5690 5691 5691 5692 5693 5694 5695 5696 5698 5700 5700 5701 5703 5704 5706 5707 5709 5710 5712 5713 5714 5715 5716 5717 5717 5718 5719 5719 5720 5721 5721 5722 5722
5687 5686 5687 5687 5687 5687 5687 5686 5685 5685 5684 5684 5684 5684 5685 5685 5685 5684 5684 5683 5683 5683 5683 5683 5682 5683 5683 5683 5684 5685 5686 5686 5686 5687 5688 5689 5690 5691 5694 5695 5694 5695 5697 5699 5700 5702 5703 5705 5706 5707 5709 5710 5711 5712 5712 5713 5714 5714 5715 5716 5716 5716 5717
5680 5680 5680 5680 5680 5681 5681 5681 5680 5680 5679 5679 5679 5679 5679 5679 5679 5679 5679 5678 5678 5678 5678 5678 5677 5678 5679 5680 5679 5680 5681 5681 5681 5682 5683 5684 5685 5687 5689 5689 5689 5689 5691 5693 5694 5696 5697 5699 5700 5702 5703 5704 5705 5706 5707 5708 5709 5709 5710 5711 5711 5711 5712
5675 5674 5673 5673 5672 5673 5674 5674 5674 5674 5674 5673 5673 5673 5674 5673 5673 5673 5673 5673 5673 5673 5672 5672 5672 5672 5674 5675 5673 5674 5675 5675 5675 5676 5677 5678 5680 5681 5683 5684 5684 5685 5686 5687 5689 5690 5692 5693 5695 5696 5697 5699 5700 5701 5702 5703 5703 5704 5705 5705 5706 5706 5707
5669 5668 5667 5666 5666 5665 5666 5666 5667 5668 5668 5668 5667 5668 5668 5668 5668 5668 5667 5667 5667 5667 5667 5667 5666 5667 5668 5669 5667 5667 5669 5668 5669 5670 5671 5672 5674 5675 5677 5678 5679 5680 5681 5682 5683 5685 5687 5688 5689 5690 5692 5693 5695 5696 5697 5697 5698 5699 5699 5700 5700 5701 5702
5663 5662 5661 5660 5659 5659 5658 5659 5659 5660 5661 5661 5661 5661 5661 5662 5662 5662 5662 5662 5662 5662 5662 5661 5661 5661 5663 5663 5662 5662 5663 5663 5664 5665 5665 5666 5668 5669 5671 5673 5674 5675 5677 5678 5679 5680 5681 5683 5684 5685 5686 5688 5689 5690 5691 5691 5692 5693 5694 5694 5695 5695 5696